Flag for Mongolia Weather past 2 weeks in Ulaanbaatar, Mongolia

Now
45 °F

Partly sunny.


Feels Like: 43 °F
Forecast: 25 / 43 °F
Wind: 3 mph from North

Location: Ulan-Bator

Current Time: Apr 1, 2015 at 6:27:23 PM

Latest Report: Apr 1, 2015 at 6:00 PM


Visibility: N/A

Pressure: 29.83 "Hg

Humidity: 23%

Dew point: 9 °F

Location of UlaanbaatarLocation

Historic Weather in Ulaanbaatar — Graph

°F

Ulaanbaatar temperature yesterday

Maximum temperature yesterday: 39 °F (at 6:00 PM)
Minimum temperature yesterday: 14 °F (at 5:30 AM)
Average temperature yesterday: 26 °F

Past Weeks' High & Low Weather Summary

 TemperatureHumidityPressure
High63 °F (Mar 25, 4:00 PM)100% (Mar 27, 10:30 AM)30.39 "Hg (Mar 27, 10:30 AM)
Low-9 °F (Mar 22, 6:30 AM)9% (Mar 24, 6:30 PM)29.62 "Hg (Mar 28, 8:30 PM)
Average27 °F55%30.00 "Hg
* Reported Mar 17 4:00 PM — Apr 1 5:30 PM, Ulaanbaatar, Weather by CustomWeather, © 2015

Note: Actual official high and low records may vary slightly from our data, if they occured in-between our weather recording intervals... More about our weather records

Advertising

Ulaanbaatar weather history for previous 24 hours

 ConditionsComfort  
Time TempWeatherWind HumidityBarometerVisibility
5:30 PM
Wed, Apr 1
45 °FPartly sunny.1 mph25%29.86 "HgN/A
5:00 PM45 °FPartly sunny.3 mph25%29.89 "HgN/A
4:30 PM43 °FScattered clouds.3 mph29%29.89 "HgN/A
4:00 PM43 °FScattered clouds.1 mph26%29.92 "HgN/A
3:30 PM43 °FPartly sunny.1 mph26%29.95 "HgN/A
3:00 PM41 °FPartly sunny.1 mph28%29.98 "HgN/A
2:30 PM41 °FPartly sunny.No wind28%29.98 "HgN/A
2:00 PM39 °FPartly sunny.1 mph28%30.01 "HgN/A
1:30 PM37 °FPartly sunny.1 mph35%30.01 "HgN/A
1:00 PM37 °FPartly sunny.1 mph35%30.01 "HgN/A
12:30 PM36 °FPartly sunny.No wind35%30.01 "HgN/A
12:00 PM34 °FPartly sunny.1 mph44%30.04 "HgN/A
11:30 AM32 °FPartly sunny.1 mph55%30.04 "Hg5 mi
11:00 AM28 °FPartly sunny.No wind64%30.04 "Hg5 mi
10:30 AM28 °FPartly sunny.No wind64%30.04 "Hg5 mi
10:00 AM27 °FPartly sunny.No wind64%30.07 "Hg5 mi
9:30 AM25 °FPartly sunny.1 mph74%30.07 "HgN/A
9:00 AM23 °FPartly sunny.No wind74%30.07 "HgN/A
8:30 AM21 °FPassing clouds.1 mph80%30.07 "HgN/A
8:00 AM19 °FPassing clouds.1 mph86%30.07 "HgN/A
7:30 AM19 °FClear.1 mph86%30.07 "Hg10 mi
7:00 AM21 °FClear.No wind80%30.07 "Hg10 mi
6:30 AM21 °FClear.3 mph74%30.09 "Hg10 mi
6:00 AM21 °FClear.No wind80%30.09 "Hg10 mi
5:30 AM21 °FPassing clouds.1 mph80%30.09 "HgN/A
5:00 AM21 °FPassing clouds.No wind86%30.09 "HgN/A
4:00 AM21 °FPassing clouds.No wind80%30.12 "HgN/A
3:00 AM23 °FPassing clouds.No wind80%30.15 "HgN/A
2:00 AM25 °FPassing clouds.1 mph69%30.15 "HgN/A
1:30 AM25 °FPassing clouds.1 mph74%30.15 "HgN/A
1:00 AM25 °FPassing clouds.No wind74%30.15 "HgN/A
12:30 AM25 °FPassing clouds.No wind74%30.12 "HgN/A
12:00 AM27 °FPassing clouds.No wind64%30.15 "HgN/A
11:30 PM
Tue, Mar 31
27 °FPassing clouds.No wind74%30.15 "HgN/A
11:00 PM27 °FPassing clouds.1 mph74%30.12 "HgN/A
10:30 PM27 °FPassing clouds.No wind69%30.15 "HgN/A
10:00 PM28 °FPassing clouds.6 mph64%30.12 "HgN/A
9:30 PM28 °FPassing clouds.3 mph69%30.12 "HgN/A
9:00 PM28 °FPartly sunny.3 mph69%30.12 "HgN/A
8:30 PM30 °FPartly sunny.3 mph64%30.09 "HgN/A
8:00 PM36 °FSunny.1 mph44%30.09 "Hg10 mi
7:30 PM37 °FSunny.3 mph28%30.09 "Hg10 mi
7:00 PM37 °FPassing clouds.6 mph23%30.12 "HgN/A
6:30 PM37 °FSunny.3 mph22%30.12 "Hg10 mi
6:00 PM39 °FSunny.1 mph22%30.12 "Hg10 mi
Weather by CustomWeather, © 2015

See weather overviewHow to use our weather pages